Welcome to the New NWS' Forecast!
Most changes are behind the scenes, but click here for differences you might notice.
Latest weather observations around

Fayetteville, Drake Field (KFYV)

Using English Units (Switch to International System of Units)
Date/ Time (CST) Wind (mph) Vis. (mi) Weather Sky Cond. Temp (°F) Rel. Humidity Wind Chill (°F) Heat Index (°F) Pressure Precip. (in)
Air Dwpt 6 hour Altimeter (inHg) Sea level (inHg) 1 hr 3 hr 6 hr
Max Min
Nov 18 01:53 S 16 6 Haze FEW025 69 64     84%     29.54 29.5      
Nov 18 00:53 S 15 7 Mostly Clear FEW029 69 64     84%     29.56 29.53      
Nov 17 23:53 S 20 9 Clear and Windy CLR 69 64     84%     29.58 29.55      
Nov 17 22:53 SSW 18 9 Clear CLR 68 64     87%     29.61 29.58      
Nov 17 21:53 S 14 8 Partly Cloudy SCT032 68 63     84%     29.64 29.61      
Nov 17 20:53 SSW 16 7 Clear CLR 68 63     84%     29.65 29.62      
Nov 17 19:53 SSW 17 7 Clear CLR 68 63     84%     29.66 29.63      
Nov 17 18:53 S 17 8 Clear CLR 68 62     81%     29.65 29.63      
Nov 17 17:53 S 15 8 Clear CLR 68 62     81%     29.66 29.63     0
Nov 17 16:53 S 15 7 Clear CLR 68 62     81%     29.67 29.64      
Nov 17 15:53 S 13 7 Mostly Cloudy SCT025 BKN031 69 62     78%     29.67 29.65      
Nov 17 14:53 S 20 7 Mostly Cloudy and Windy BKN022 68 62     81%     29.67 29.65   0  
Nov 17 14:05 S 18 7 Mostly Cloudy BKN020 69 62     78%     29.7        
Nov 17 13:53 SSW 17 6 Haze SCT019 BKN030 69 62     78%     29.71 29.68 0    
Nov 17 12:53 S 20 6 Haze BKN016 OVC023 66 61     84%     29.75 29.72      
Nov 17 11:53 S 15 5 Fog/Mist OVC014 62 60     93%     29.8 29.78      
Nov 17 10:53 S 18 5 Fog/Mist OVC012 62 59     90%     29.84 29.82      
Nov 17 09:53 S 20 4 Fog/Mist OVC010 60 58     93%     29.87 29.85      
Nov 17 09:02 S 13 4 Fog/Mist OVC010 58 57     97%     29.89        
Nov 17 08:53 S 16 2.5 Fog/Mist OVC010 57 56     96%     29.89 29.88      
Nov 17 08:26 S 16 2.5 Fog/Mist OVC011 57 56     96%     29.91        
Nov 17 07:53 S 11 4 Fog/Mist OVC011 58 56     93%     29.91 29.9      
Nov 17 06:53 S 20 6 Fog/Mist OVC013 58 55     90%     29.91 29.9      
Nov 17 05:53 S 16 6 Fog/Mist OVC013 58 55     90%     29.94 29.93      
Nov 17 04:53 S 17 6 Fog/Mist OVC013 57 55     93%     29.96 29.94      
Nov 17 03:53 SSE 8 6 Fog/Mist OVC012 57 55     93%     29.97 29.95      
Nov 17 02:53 S 13 6 Fog/Mist OVC012 57 54     89%     30 29.98      
Nov 17 01:53 SSE 13 6 Fog/Mist OVC012 56 53     90%     30 29.98      
Nov 17 00:53 SSE 10 7 Cloudy OVC013 56 52     87%     30.02 30      
Nov 17 00:45 SSE 8 7 Cloudy OVC014 56 52     87%     30.02        
Nov 17 00:19 SSE 11 7 Cloudy BKN016 OVC046 56 52     87%     30.04        
Nov 16 23:53 S 14 7 Cloudy OVC013 56 52     87%     30.05 30.03      
Nov 16 23:41 S 10 7 Cloudy BKN012 OVC050 56 52     87%     30.05        
Nov 16 22:53 S 11 8 Cloudy SCT040 BKN055 OVC070 56 50     80%     30.05 30.04      
Nov 16 21:53 ESE 3 9 Cloudy FEW017 OVC070 53 48     83%     30.06 30.06      
Nov 16 20:53 Calm 10 Mostly Cloudy FEW041 BKN070 52 46     80%     30.06 30.06      
Nov 16 19:53 Calm 10 Mostly Cloudy BKN033 BKN070 50 45     83%     30.08 30.09      
Nov 16 18:53 ESE 3 10 Partly Cloudy SCT060 54 45     72%     30.08 30.09      
Nov 16 17:53 SSE 5 10 Clear CLR 54 44     69%     30.08 30.09      
Nov 16 16:53 S 5 10 Clear CLR 57 45     64%     30.08 30.08      
Nov 16 15:53 S 9 10 Clear CLR 63 46     54%     30.08 30.08      
Nov 16 14:53 S 6 10 Clear CLR 65 45     48%     30.08 30.07      
Nov 16 13:53 SSE 8 10 Clear CLR 65 45     48%     30.1 30.1      
Nov 16 12:53 SSW 9 8 Clear CLR 64 45     50%     30.12 30.12      
Nov 16 11:53 Calm 10 Mostly Cloudy BKN032 60 42     51%     30.16 30.16      
Nov 16 10:53 E 5 10 Clear CLR 55 40     57%     30.2 30.2      
Nov 16 09:53 6 10 Clear CLR 50 41     71% 48   30.21 30.22      
Nov 16 08:53 Calm 10 Clear CLR 41 39     93%     30.22 30.23      
Nov 16 07:53 Calm 7 Clear CLR 33 33     100%     30.21 30.22      
Notice The following observation data may not be complete
Nov 16 06:53 Calm 8 Clear CLR   32      %     30.21 30.22      
Notice The following observation data may not be complete
Nov 16 06:24 Calm 7 Mostly Clear FEW002   31      %     30.2        
Notice The following observation data may not be complete
Nov 16 06:16 Calm 1.25 Fog/Mist FEW002   31      %     30.2        
Notice The following observation data may not be complete
Nov 16 06:09 Calm 0.75 Fog/Mist VV002   31      %     30.2        
Notice The following observation data may not be complete
Nov 16 06:06 Calm 1.5 Fog/Mist FEW002   31      %     30.19        
Notice The following observation data may not be complete
Nov 16 05:53 Calm 4 Fog/Mist FEW002   31      %     30.19 30.21      
Nov 16 05:45 Calm 4 Fog/Mist FEW002 32 32     100%     30.19        
Notice The following observation data may not be complete
Nov 16 05:37 Calm 2 Fog/Mist FEW002   32      %     30.2        
Notice The following observation data may not be complete
Nov 16 05:30 Calm 1 Fog/Mist VV001   31      %     30.2        
Notice The following observation data may not be complete
Nov 16 05:21 Calm 2 Fog/Mist BKN001   32      %     30.2        
Notice The following observation data may not be complete
Nov 16 04:53 Calm 0.25 Fog VV001   31      %     30.19 30.2      
Notice The following observation data may not be complete
Nov 16 04:48 Calm 0.75 Fog/Mist VV001   30      %     30.19        
Notice The following observation data may not be complete
Nov 16 04:43 Calm 2 Fog/Mist OVC002   32      %     30.19        
Notice The following observation data may not be complete
Nov 16 04:25 Calm 0.5 Fog VV001   32      %     30.18        
Notice The following observation data may not be complete
Nov 16 04:16 Calm 1.75 Fog/Mist BKN002   32      %     30.18        
Notice The following observation data may not be complete
Nov 16 03:53 Calm 6 Fog/Mist FEW002   32      %     30.18 30.18      
Notice The following observation data may not be complete
Nov 16 02:53 Calm 8 Partly Cloudy SCT002   32      %     30.19 30.19      
Notice The following observation data may not be complete
Nov 16 02:50 Calm 7 Partly Cloudy SCT002   32      %     30.18        
Notice The following observation data may not be complete
Nov 16 02:14 Calm 6 Fog/Mist OVC002   32      %     30.19        
Notice The following observation data may not be complete
Nov 16 02:06 Calm 2 Fog/Mist BKN002   32      %     30.19        
Notice The following observation data may not be complete
Nov 16 01:53 Calm 0.75 Fog/Mist VV002   32      %     30.19 30.2      
Nov 16 01:51 Calm 1 Fog/Mist VV001 34 34     100%     30.19        
Nov 16 01:48 Calm 2 Fog/Mist FEW002 34 34     100%     30.19        
Notice The following observation data may not be complete
Nov 16 01:00 Calm 5 Fog/Mist CLR   34      %     30.18        
Notice The following observation data may not be complete
Nov 16 00:53 Calm 2.5 Fog/Mist FEW001   35      %     30.18 30.18      
Notice The following observation data may not be complete
Nov 16 00:38 Calm 3 Fog/Mist SCT002   34      %     30.18        
Notice The following observation data may not be complete
Nov 16 00:22 S 3 0.75 Fog/Mist VV001   32      %     30.19        
Notice The following observation data may not be complete
Nov 16 00:19 S 6 1.75 Fog/Mist FEW002   33      %     30.19        
Notice The following observation data may not be complete
Nov 15 23:53 Calm 6 Fog/Mist FEW002   34      %     30.19 30.19      
Notice The following observation data may not be complete
Nov 15 23:50 Calm 2.5 Fog/Mist FEW002   34      %     30.19        
Notice The following observation data may not be complete
Nov 15 23:40 Calm 1.75 Fog/Mist CLR   36      %     30.19        
Notice The following observation data may not be complete
Nov 15 23:30 Calm 3 Fog/Mist FEW002   36      %     30.19        
Notice The following observation data may not be complete
Nov 15 23:28 Calm 1.5 Fog/Mist FEW002   36      %     30.19        
Notice The following observation data may not be complete
Nov 15 23:05 Calm 0.75 Fog/Mist VV002   38      %     30.19        
Notice The following observation data may not be complete
Nov 15 23:00 Calm 1.25 Fog/Mist FEW002   38      %     30.2        
Notice The following observation data may not be complete
Nov 15 22:53 Calm 0.75 Fog/Mist VV002   39      %     30.19 30.19      
Notice The following observation data may not be complete
Nov 15 22:50 Calm 1 Fog/Mist VV002   37      %     30.19        
Notice The following observation data may not be complete
Nov 15 22:44 Calm 2.5 Fog/Mist FEW002   38      %     30.19        
Notice The following observation data may not be complete
Nov 15 22:29 Calm 3 Fog/Mist CLR   39      %     30.19        
Notice The following observation data may not be complete
Nov 15 22:25 Calm 1 Fog/Mist CLR   39      %     30.19        
Notice The following observation data may not be complete
Nov 15 22:16 Calm 0.75 Fog/Mist VV002   38      %     30.19        
Notice The following observation data may not be complete
Nov 15 22:13 Calm 1.5 Fog/Mist CLR   38      %     30.19        
Notice The following observation data may not be complete
Nov 15 21:53 Calm 6 Fog/Mist CLR   38      %     30.19 30.18      
Notice The following observation data may not be complete
Nov 15 20:53 Calm 7 Clear CLR   40      %     30.17 30.16      
Notice The following observation data may not be complete
Nov 15 20:26 Calm 7 Clear CLR   40      %     30.16        
Notice The following observation data may not be complete
Nov 15 20:24 Calm 1.75 Clear CLR   40      %     30.16        
Notice The following observation data may not be complete
Nov 15 19:53 Calm 8 Clear CLR   42      %     30.14 30.14      
Nov 15 18:53 N 5 10 Clear CLR 46 44     93% 44   30.14 30.13      
Notice The following observation data may not be complete
Nov 15 17:53 N 5 10 Clear CLR   46      %     30.12 30.11      
Nov 15 16:53 N 7 10 Clear CLR 57 50     77%     30.09 30.08      
Nov 15 15:53 NNE 6 10 Mostly Clear FEW031 63 52     67%     30.08 30.06      
Nov 15 14:53 N 13 9 Mostly Cloudy BKN026 62 53     72%     30.07 30.05      
Nov 15 13:53 N 8 6 Fog/Mist OVC019 59 56     90%     30.07 30.05      
Nov 15 12:53 N 8 5 Fog/Mist OVC015 60 57     90%     30.05 30.03      
Nov 15 12:28 NNW 8 4 Fog/Mist BKN011 BKN036 61 58     90%     30.06        
Nov 15 12:21 NNW 9 4 Fog/Mist BKN009 BKN036 62 59     90%     30.06        
Nov 15 12:13 NNW 7 4 Fog/Mist SCT009 BKN036 61 59     93%     30.06        
Nov 15 11:53 NNW 7 3 Fog/Mist OVC008 59 58     96%     30.07 30.05 0   0
Nov 15 10:53 WNW 7 1.75 Light Rain and Fog/Mist BKN006 OVC013 58 58     100%     30.08 30.06 0    
Nov 15 10:37 NNW 9 2 Fog/Mist BKN006 OVC011 57 57     100%     30.08        
Nov 15 10:25 NW 7 4 Fog/Mist BKN008 OVC014 58 58     100%     30.07        
Nov 15 10:08 NW 5 5 Fog/Mist SCT009 OVC013 58 58     100%     30.07        
Nov 15 09:53 5 6 Fog/Mist OVC015 59 58     96%     30.06 30.05      
Nov 15 09:12 Calm 6 Fog/Mist FEW009 OVC020 58 57     97%     30.05        
Nov 15 08:53 SSW 6 5 Fog/Mist BKN022 OVC090 57 57     100%     30.04 30.02 0 0  
Nov 15 07:53 S 5 4 Light Rain and Fog/Mist OVC028 56 56     100%     30.02 30.01 0    
Nov 15 07:05 W 3 5 Light Rain and Fog/Mist SCT015 BKN020 OVC039 57 57     100%     30   0    
Nov 15 06:53 NNW 5 2 Heavy Rain and Fog/Mist SCT014 BKN020 OVC025 56 56     100%     30 29.98 0    
Nov 15 06:42 NNW 7 1.75 Heavy Rain and Fog/Mist SCT014 BKN021 OVC046 56 56     100%     30   0    
Nov 15 06:34 NW 9 1.75 Heavy Rain and Fog/Mist SCT026 BKN032 OVC046 56 54     93%     29.99   0    
Nov 15 05:53 SSW 14 3 Rain and Fog/Mist BKN028 BKN043 OVC110 57 53     87%     29.94 29.93 0   0
Nov 15 05:42 SSW 15 6 Haze BKN026 BKN043 58 53     84%     29.94        
Nov 15 04:53 SSW 14 7 Mostly Cloudy FEW033 SCT048 BKN095 58 53     84%     29.94 29.92      
Nov 15 03:53 SSW 8 8 Cloudy BKN034 BKN042 OVC060 58 52     81%     29.94 29.93      
Nov 15 02:53 SSW 8 9 Cloudy SCT039 BKN046 OVC065 58 52     81%     29.98 29.96      
Jun 11 22:53 SSE 11 10 Clear CLR 75 63     66%   75 29.97 29.93      
Jun 10 17:53 S 16 10 Clear   80 66     62%   82 29.89 29.86      
Jun 10 00:53 Calm 10 Clear CLR 60 60     100%     29.93 29.9      
Jun 08 12:53 Calm 10 Clear CLR 77 52     42%   76 30.05 30.02      
Jun 07 20:53 Calm 10 Clear CLR 64 57     78%     30.02 29.99      
Jun 06 04:53 Calm 0.25 Fog VV002 62 62     100%     29.9 29.86      
Jun 06 02:53 Calm 0.5 Fog VV002 63 63     100%     29.88 29.85      
Jun 05 18:53 E 3 10 Clear CLR 79 71     77%   82 29.82 29.78     1
Jun 05 16:53 5 10 Mostly Clear FEW029 80 71     74%   84 29.8 29.76      
Notice The following observation data may not be complete
Jun 05 14:21   10 Mostly Cloudy SCT016 SCT075 BKN110          %         1    
Jun 05 14:13 E 5 4 Thunderstorms and Rain and Fog/Mist BKN020 BKN075 OVC110 70 70     100%     29.83   1    
Notice The following observation data may not be complete
Jun 05 14:10 SE 6 1 Thunderstorms and Rain and Fog/Mist BKN020 BKN075 OVC120   69      %     29.83   1